Preview of NWS' New Version of Forecast
This preview is not operational and should not be used for support decisions.

Regional Weather Roundup (RWR)

Issued by National Weather Service (NWS)

                            
000
ASPQ40 PGUM 210410
RWRPQ 
WEATHER ROUNDUP FOR THE MARIANAS AND MICRONESIA
NATIONAL WEATHER SERVICE TIYAN GU
200 PM CHST WED AUG 21 2019

GUZ001>004-210500-
MARIANA ISLANDS-
  
CITY           SKY/WX    TMP DP  RH WIND       PRES   REMARKS
GUAM AIRPORT   CLOUDY    88  75  66 N7        29.82F HX  97           
ANDERSEN AFB   PTSUNNY   86  75  70 NE7       29.82F HX  95           
ROTA AIRPORT   MOSUNNY   86  72  62 E9        29.78F HX  92           
TINIAN AP      MOSUNNY   88  75  66 E8        29.80F HX  97           
SAIPAN AP      MOSUNNY   90  75  62 E9        29.81F HX 100           

$$

PMZ161-210500-
REPUBLIC OF PALAU-
  
CITY           SKY/WX    TMP DP  RH WIND       PRES   REMARKS
KOROR AP       PTSUNNY   86  77  74 W16G22    29.77F HX  97           
KOROR WSO      NOT AVBL                                               

$$

PMZ171>174-210500-
FEDERATED STATES OF MICRONESIA-
  
CITY           SKY/WX    TMP DP  RH WIND       PRES   REMARKS
YAP AIRPORT    CLOUDY    84  79  84 S8        29.79F HX  96           
CHUUK AP       PTSUNNY   90  81  74 NE9       29.71F HX 108           
POHNPEI AP     NOT AVBL                                               
POHNPEI WSO    NOT AVBL                                               
KOSRAE AP      NOT AVBL                                               

$$

PMZ181-210500-
REPUBLIC OF THE MARSHALL ISLANDS-
  
CITY           SKY/WX    TMP DP  RH WIND       PRES   REMARKS
KWAJALEIN AP   SUNNY     84  77  79 S6        29.75S HX  94           
MAJURO AP      PTSUNNY   86  79  79 E13       29.76S HX  99           
MAJURO WSO     PTSUNNY   84  77  79 E6        29.75F HX  94           

$$